{"data":{"norad_id":55177,"intl_designator":"2023-004AP","name":"ONEWEB-0716","alt_names":[],"object_type":"PAYLOAD","status":"ACTIVE","operator":null,"country":"UK","launch_date":"2023-01-10","launch_site_code":"AFETR","launch_vehicle":null,"mission":null,"orbit_class":"UNKNOWN","rcs_meters":null,"size_class":null,"mass_kg":null,"dimensions":null,"purposes":["comms"],"wikipedia_slug":null,"has_3d_model":false,"image_url":null,"decayed_at":null,"tle_current":{"epoch":"2026-09-19T01:17:57.993216Z","epoch_age_seconds":146970,"freshness":"FRESH","line1":"1 55177U 23004AP  26262.05414344  .00000059  00000+0  11754-3 0  9991","line2":"2 55177  87.9199 347.2286 0001952  94.6034 265.5320 13.17650024179947","mean_motion":13.17650024,"eccentricity":0.0001952,"inclination_deg":87.9199,"raan_deg":347.2286,"arg_perigee_deg":94.6034,"mean_anomaly_deg":265.532,"bstar":0.00011754,"rev_number":17994,"period_min":109.28546835438,"perigee_km":1192.2313125275,"apogee_km":1195.1873613374,"semimajor_km":7571.8463369325,"source":"CELESTRAK","updated_at":"2026-09-20T09:00:44.758113Z"}}}